Terminal Aerodrome Forecast
Issued by NWS Charleston, WV

Current Version | Previous Version | Graphics & Text | Print | Product List | Glossary On
Versions: 1 2 3 4 5 6 7 8 9 10 11 12 13 14 15 16 17 18 19 20 21 22 23
000
FTUS41 KRLX 182328
TAFCRW
TAF
KCRW 182328Z 1900/1924 34005KT P6SM FEW070
     FM190400 24012G27KT 4SM -SHRA FEW001 OVC050
     FM190700 26013G27KT P6SM BKN030
     FM191700 29009G20KT P6SM BKN020=

USA.gov is the U.S. government's official web portal to all federal, state and local government web resources and services.